Temperature
17 17 17 17 17 17 17 17 17 17 17 18 18 18 18 18 18 18 18 18 18 18 18 18 18 18 18 18 18 18 18 18 18 18 18 18 18 18 18 18 18 18 18
17 16 17 17 17 17 17 17 17 17 17 17 18 18 18 18 18 18 18 18 18 18 18 18 18 18 18 18 18 18 18 18 18 18 18 18 18 18 18 18 18 18 18
17 16 17 17 17 17 17 17 17 17 17 17 18 17 17 17 18 18 18 18 17 17 18 18 18 18 18 18 18 18 18 18 18 18 18 17 17 18 18 18 18 18 18
16 16 16 17 17 17 17 17 17 17 17 17 17 17 17 17 17 17 17 17 17 17 17 17 18 17 17 17 18 18 18 18 17 17 17 17 17 18 18 18 18 18 18
16 16 16 17 17 17 17 17 17 17 17 17 17 17 17 17 17 17 17 17 17 17 17 17 17 17 17 17 17 17 17 18 17 17 17 17 17 17 18 18 17 17 18
16 16 16 17 17 17 17 17 17 17 17 17 17 17 17 17 17 17 17 17 17 17 17 17 17 17 17 17 17 17 17 17 17 17 17 17 17 17 17 17 17 17 17
16 16 16 17 17 17 17 17 17 17 17 17 17 17 17 17 17 17 17 17 17 17 17 17 17 17 17 17 17 17 17 17 17 17 17 17 17 17 17 17 17 17 17
16 16 16 17 17 17 17 17 16 17 17 17 17 17 17 17 17 16 17 16 16 16 16 17 16 17 17 17 17 17 17 17 16 16 16 17 17 17 17 17 17 17 17
16 16 16 16 16 16 17 16 16 16 16 17 17 17 16 17 16 16 16 16 16 16 16 16 16 16 16 17 17 17 17 17 16 16 16 16 16 17 17 17 17 17 17
16 16 16 16 16 16 16 16 16 16 16 16 16 16 16 16 16 16 16 16 16 16 16 16 16 16 16 16 16 16 16 16 16 16 16 16 16 16 16 17 17 17 17
16 16 16 16 16 16 16 16 16 16 16 16 16 16 16 16 16 16 16 16 16 16 16 16 16 16 16 16 16 16 16 16 16 15 16 16 16 16 16 16 16 16 16
16 16 16 16 16 16 16 16 16 16 16 16 16 16 16 16 16 16 16 16 16 16 16 16 16 16 16 15 16 16 15 15 15 15 15 16 16 16 16 16 16 16 16
16 16 16 16 16 16 16 16 16 16 16 16 15 16 15 15 16 15 15 15 15 15 15 15 15 15 15 15 15 15 15 15 15 15 15 15 15 15 15 15 16 16 15
16 16 16 16 16 16 16 16 16 16 16 16 15 15 15 15 15 15 15 15 15 15 15 15 15 15 15 15 15 15 15 15 15 15 15 15 15 15 15 15 15 15 15
16 16 16 16 16 16 16 16 16 16 15 15 15 15 15 15 15 15 15 15 15 15 15 15 15 15 15 15 15 15 15 14 14 14 14 14 15 15 15 15 15 15 15
16 16 16 16 16 16 16 16 16 16 15 15 15 15 15 15 15 15 15 15 15 15 15 15 15 15 15 15 14 14 14 14 14 14 14 14 14 14 15 14 14 14 15
16 16 16 15 15 15 15 15 15 15 15 15 15 15 15 15 15 15 15 15 15 14 14 14 14 14 14 14 14 14 14 14 14 14 14 14 14 14 14 14 14 14 14
16 16 15 15 15 15 15 15 15 15 15 15 15 15 15 15 15 15 14 14 14 14 14 14 14 14 14 14 14 14 14 14 14 14 14 14 14 14 14 14 14 14 14
16 16 15 15 15 15 15 15 15 15 15 15 15 15 15 15 15 15 14 14 14 14 14 14 14 14 14 14 14 14 14 14 13 13 13 13 14 13 13 14 14 14 14
16 15 15 15 15 15 15 15 15 15 15 15 15 15 15 15 15 14 14 14 14 14 14 14 14 14 14 14 14 14 13 13 13 13 13 13 13 13 13 13 13 13 14
15 15 15 15 15 15 15 15 15 15 15 15 15 15 14 14 14 14 14 14 14 14 14 14 14 14 13 13 14 14 13 13 13 13 13 13 13 13 13 13 13 13 13
15 15 15 15 15 14 15 14 14 14 14 14 14 14 14 14 14 14 14 14 14 14 14 14 13 13 13 13 14 14 14 14 13 13 13 12 13 13 12 12 13 13 13
15 15 15 15 15 14 14 14 14 14 14 14 14 14 14 14 14 14 14 14 14 13 13 13 13 13 13 13 13 14 14 14 13 13 12 12 12 12 12 12 12 12 12
15 15 15 15 15 14 14 14 14 14 14 14 14 14 14 14 14 14 14 14 13 13 13 13 13 13 13 13 13 13 13 13 13 13 13 12 12 12 12 12 12 12 12
15 15 15 15 15 14 14 14 14 14 14 14 14 14 14 14 14 14 14 14 13 13 13 13 13 13 13 13 13 13 13 13 13 13 13 12 12 12 12 12 11 12 12
15 15 15 15 14 14 14 14 14 14 14 14 14 14 14 14 14 14 14 13 13 13 13 13 13 13 13 13 13 13 13 13 13 13 13 12 12 12 11 11 11 11 11
Wind_Speed
4 5 7 7 8 8 9 9 10 10 10 10 10 10 9 9 9 9 9 10 10 9 9 10 9 10 9 9 10 10 10 10 9 9 9 8 8 7 6 6 5 6 8
4 4 6 6 7 8 9 9 10 10 10 11 10 10 10 10 10 10 10 10 10 10 10 10 11 10 10 10 10 10 10 10 10 9 8 8 7 7 7 7 5 7 7
4 4 5 6 7 7 8 9 10 11 11 11 11 12 12 11 11 10 10 10 11 11 11 11 11 11 11 12 12 11 11 10 9 8 5 6 7 8 7 7 7 7 7
4 4 6 7 7 7 8 10 11 11 11 11 12 12 12 12 11 11 11 11 11 11 11 11 11 11 11 12 12 12 11 10 8 5 5 6 6 8 7 7 7 7 7
5 6 7 7 8 8 9 10 11 12 12 12 12 12 13 12 12 12 12 11 12 12 12 12 11 11 11 11 11 11 10 9 7 5 6 6 6 8 7 7 6 6 6
6 6 8 8 9 9 10 11 12 12 12 12 12 13 13 12 12 12 12 12 12 12 12 12 12 12 11 11 11 10 9 7 5 6 6 6 7 8 7 7 6 6 6
6 6 8 9 9 9 10 11 12 12 13 13 14 14 13 13 13 12 12 12 12 12 12 12 12 12 12 12 11 10 9 6 6 6 6 7 7 8 7 7 7 6 6
6 6 8 9 9 10 10 11 12 12 13 13 13 14 14 13 13 13 13 13 13 13 12 12 12 13 12 11 11 10 9 6 6 6 6 7 8 7 7 7 7 7 6
6 6 6 7 9 9 10 11 11 12 13 13 13 13 13 13 13 13 12 12 13 13 13 12 12 12 12 11 11 10 9 7 6 6 6 7 8 7 7 7 7 7 6
5 5 6 6 7 8 9 11 11 12 12 12 13 13 12 12 12 12 12 13 13 13 12 12 12 12 11 11 11 9 6 4 6 7 7 9 9 7 7 6 7 7 7
5 5 5 6 6 7 8 9 9 10 10 8 10 9 7 8 9 10 13 13 13 13 13 13 12 12 11 11 10 7 5 6 7 7 8 10 9 8 7 6 7 6 6
5 5 5 5 6 6 6 6 6 7 6 7 7 7 7 8 9 10 13 14 13 12 12 12 10 8 6 8 8 5 6 8 7 7 9 10 9 9 8 7 7 7 7
4 4 4 4 5 5 4 4 5 5 5 6 6 7 6 7 7 7 7 8 9 8 9 8 7 8 8 7 7 7 8 7 7 8 10 11 10 10 10 8 7 7 8
4 4 3 3 4 4 4 4 4 4 4 5 5 6 5 5 6 7 6 7 6 6 7 7 6 8 8 8 8 8 8 7 8 8 10 11 11 11 11 10 9 8 8
4 3 3 2 2 3 3 3 4 4 4 5 5 5 6 5 6 6 6 6 7 6 6 6 6 7 7 8 8 8 9 9 9 8 9 13 13 12 12 11 10 10 9
3 3 3 3 2 2 3 3 3 4 4 4 4 5 6 5 5 5 6 6 6 6 6 6 7 6 6 6 7 8 8 8 8 8 8 10 13 13 13 11 10 9 9
3 3 3 3 3 2 3 3 3 3 4 4 4 5 6 6 5 5 5 5 5 6 6 6 7 6 6 6 7 7 7 8 7 7 8 7 8 11 13 13 12 10 9
3 3 4 3 3 3 3 3 3 3 3 4 4 4 5 5 6 5 4 4 5 5 5 5 5 5 5 5 5 6 6 6 7 7 7 7 7 7 10 12 12 11 10
3 4 4 4 4 3 3 3 3 3 3 3 4 4 4 5 5 4 4 4 4 4 4 4 4 4 5 5 5 5 5 5 6 6 7 7 7 7 7 9 11 12 11
2 4 4 5 4 4 3 3 3 3 3 3 3 3 4 3 4 4 3 4 4 3 3 4 5 4 4 4 4 5 5 5 5 6 6 7 7 8 7 7 6 8 11
3 4 5 5 5 5 4 3 3 3 3 2 2 3 3 3 3 3 2 3 3 3 3 3 4 4 3 3 3 4 4 5 6 5 5 5 6 7 7 7 6 6 6
3 4 5 5 5 5 4 3 3 3 2 2 2 2 2 2 2 2 2 2 2 2 2 3 2 2 2 1 1 0 2 3 4 5 4 4 5 5 6 7 7 7 6
4 4 5 5 5 6 5 4 3 3 2 3 2 2 1 2 2 1 1 1 2 2 2 1 1 1 1 1 2 2 1 1 2 3 5 5 5 4 5 5 6 7 6
4 4 5 5 6 6 6 5 5 4 3 3 2 2 2 2 1 1 1 1 1 1 1 1 1 0 0 1 1 2 2 2 0 1 2 4 5 5 5 4 5 6 6
4 4 5 5 5 6 6 6 5 4 3 2 2 2 2 2 1 1 1 1 1 1 1 1 0 0 0 1 1 1 1 1 1 1 1 2 3 4 4 5 4 4 5
4 4 4 5 5 5 6 6 6 5 4 3 3 3 2 2 1 2 1 1 1 1 1 1 0 0 0 1 1 0 0 0 0 0 1 1 2 3 3 3 3 3 4
Wind_Direction
11 14 23 17 33 42 46 52 54 57 61 65 69 73 82 87 89 92 90 90 90 89 93 95 94 94 93 96 100 101 104 105 105 102 100 99 100 102 103 113 121 111 103
21 31 38 28 39 47 50 55 58 59 61 63 64 68 85 91 92 92 90 90 90 89 91 93 91 90 92 93 94 97 100 96 97 99 102 101 98 100 99 96 86 86 99
38 44 57 45 45 50 54 61 62 60 60 61 62 66 78 86 88 90 91 92 91 90 90 92 92 90 92 92 90 89 92 93 96 105 116 104 97 98 97 96 94 91 98
50 48 53 54 54 57 61 64 64 60 60 61 63 67 72 77 81 85 86 89 89 88 88 89 91 89 90 90 86 85 86 87 88 99 99 92 92 93 94 96 95 95 95
62 54 62 56 60 70 69 65 64 62 62 63 63 67 70 74 77 80 82 82 85 85 86 88 88 88 88 89 87 86 87 87 89 88 81 84 86 87 88 90 92 91 90
75 64 67 60 66 71 71 69 67 64 63 63 64 67 69 73 75 80 82 81 82 82 83 86 88 89 87 88 85 83 84 90 98 84 78 79 83 85 84 84 83 85 90
79 74 72 66 67 71 72 73 68 66 66 65 64 66 67 71 73 76 80 81 82 82 83 84 85 85 84 83 80 76 74 76 83 84 80 77 74 76 78 76 74 74 79
78 77 81 80 71 69 70 70 69 68 67 66 64 63 63 64 68 71 76 77 76 77 79 82 83 83 80 77 73 70 65 58 86 83 79 76 74 74 74 71 68 66 70
81 81 80 84 85 82 75 71 71 71 68 66 66 66 66 65 67 70 74 80 80 79 78 80 83 83 81 78 73 71 68 56 67 75 77 74 74 73 72 71 66 65 69
85 81 79 80 82 83 82 74 70 71 68 67 67 66 68 71 73 75 77 80 82 81 80 80 82 86 82 78 74 70 65 62 67 71 72 74 71 70 71 70 68 65 61
88 83 81 82 82 81 79 83 83 81 74 76 74 67 66 70 72 79 76 82 82 80 80 79 81 84 87 83 74 65 59 59 63 63 65 65 63 64 67 69 71 66 64
102 91 84 88 88 85 80 83 80 79 75 67 65 62 58 62 66 75 87 86 85 85 85 80 82 88 84 81 80 72 64 61 59 65 65 61 57 58 61 68 74 72 72
106 98 91 94 95 90 87 80 75 74 72 66 62 63 64 68 74 78 85 91 89 90 85 87 87 75 72 70 66 64 58 58 57 60 63 59 55 54 55 62 69 73 72
112 108 98 95 96 93 92 86 81 78 74 70 66 65 65 67 67 73 78 78 77 77 77 75 74 75 72 72 70 67 64 59 59 59 61 57 52 51 52 55 62 68 69
138 133 121 111 94 92 92 89 90 82 77 79 71 67 70 70 70 75 77 76 74 77 80 76 73 73 71 67 66 65 63 59 58 59 64 61 53 49 48 53 56 60 67
161 149 143 137 117 116 111 106 93 92 89 80 74 70 73 75 75 75 76 75 73 74 74 76 76 73 71 69 67 64 59 59 57 56 57 61 57 50 46 49 53 59 63
174 165 149 136 130 127 116 108 103 97 93 86 79 73 75 74 76 79 77 79 79 79 79 77 75 72 74 74 70 65 62 58 55 54 51 49 55 56 50 47 49 54 60
179 165 152 152 146 133 127 126 114 104 94 89 82 77 77 78 76 79 79 79 82 86 86 83 76 77 75 72 68 64 62 61 56 55 53 50 46 46 53 49 47 50 55
185 171 164 159 152 142 134 128 114 108 103 94 89 83 78 78 80 85 78 80 85 88 87 86 79 73 75 72 70 65 58 56 54 52 52 49 52 47 46 53 53 50 50
188 174 164 161 160 144 141 139 120 111 107 99 92 85 78 79 79 83 89 87 89 94 93 94 90 81 75 76 72 69 63 63 58 49 45 46 45 44 43 43 49 56 55
185 179 170 171 164 157 152 155 143 143 131 114 98 90 93 95 94 88 89 92 88 89 94 104 101 95 84 81 88 83 86 71 60 53 45 45 47 43 41 43 42 43 58
180 186 182 177 175 168 159 157 156 150 148 130 117 107 105 105 103 100 99 101 105 101 103 103 106 95 77 32 17 59 107 103 64 53 48 45 42 45 40 42 43 43 43
190 192 190 189 182 178 165 152 142 147 162 152 147 136 120 113 115 112 94 106 110 118 108 110 118 104 77 59 13 349 355 63 71 66 53 48 44 41 40 37 41 41 47
199 200 198 192 188 181 175 168 174 185 182 176 167 157 155 140 133 138 126 123 121 109 114 141 107 79 35 62 64 18 20 54 79 90 72 57 46 42 39 36 34 38 42
197 199 203 193 186 183 183 181 192 196 190 173 173 171 175 156 161 170 166 157 152 142 135 110 90 326 331 360 20 65 71 61 352 116 83 56 55 47 41 36 34 35 38
192 193 201 197 187 184 189 189 195 194 190 179 180 188 194 183 190 188 182 190 186 177 164 151 169 188 321 10 339 26 347 14 60 132 152 75 52 46 42 38 34 33 33
Height
1519 1518 1515 1514 1513 1511 1510 1509 1507 1507 1505 1504 1503 1502 1502 1502 1503 1503 1504 1505 1505 1505 1506 1507 1507 1508 1508 1509 1509 1510 1510 1511 1511 1512 1513 1514 1515 1515 1515 1516 1516 1517 1517
1520 1519 1516 1515 1514 1513 1512 1511 1510 1508 1507 1506 1505 1503 1502 1503 1504 1505 1506 1506 1507 1507 1508 1508 1508 1509 1509 1510 1510 1511 1512 1512 1513 1513 1514 1515 1516 1516 1517 1517 1517 1518 1517
1521 1520 1518 1517 1516 1515 1514 1512 1511 1510 1509 1508 1507 1505 1504 1505 1506 1506 1507 1508 1508 1509 1509 1510 1510 1510 1511 1512 1512 1513 1513 1513 1514 1515 1516 1517 1517 1517 1517 1517 1518 1518 1518
1522 1521 1520 1518 1517 1516 1515 1514 1513 1512 1511 1510 1509 1508 1507 1507 1508 1509 1509 1509 1510 1510 1511 1511 1512 1512 1513 1513 1514 1514 1514 1515 1516 1517 1518 1518 1518 1518 1518 1519 1519 1519 1519
1523 1522 1521 1519 1518 1517 1517 1516 1515 1514 1513 1512 1511 1511 1510 1510 1510 1510 1511 1511 1512 1512 1513 1513 1513 1514 1514 1515 1515 1515 1516 1516 1517 1518 1518 1519 1519 1519 1519 1519 1519 1520 1520
1524 1524 1522 1520 1519 1519 1519 1518 1517 1516 1516 1515 1514 1513 1513 1512 1512 1512 1512 1513 1513 1514 1514 1514 1515 1515 1515 1516 1516 1517 1517 1518 1518 1519 1519 1520 1520 1520 1520 1520 1520 1520 1521
1526 1525 1524 1522 1521 1521 1520 1520 1519 1518 1518 1517 1516 1515 1515 1514 1514 1514 1514 1515 1515 1515 1515 1516 1516 1517 1517 1517 1518 1518 1518 1518 1519 1520 1520 1520 1520 1520 1521 1521 1521 1521 1521
1527 1527 1526 1524 1524 1523 1522 1521 1521 1520 1520 1519 1518 1517 1517 1516 1516 1516 1516 1516 1516 1517 1517 1517 1518 1518 1518 1518 1519 1519 1519 1519 1520 1521 1521 1521 1521 1521 1521 1521 1521 1521 1521
1529 1528 1528 1527 1526 1525 1524 1524 1523 1522 1522 1521 1520 1519 1519 1518 1518 1517 1517 1517 1518 1518 1519 1519 1519 1519 1520 1520 1520 1520 1520 1520 1521 1521 1522 1521 1521 1521 1522 1522 1522 1522 1521
1530 1530 1529 1529 1529 1528 1527 1526 1525 1524 1524 1523 1523 1522 1521 1520 1519 1518 1519 1519 1519 1520 1520 1521 1521 1521 1521 1521 1521 1522 1522 1522 1523 1523 1522 1522 1522 1522 1522 1522 1522 1522 1522
1531 1531 1531 1531 1530 1530 1529 1528 1528 1527 1526 1526 1525 1524 1523 1523 1521 1520 1520 1520 1521 1522 1522 1523 1523 1523 1523 1523 1523 1523 1524 1524 1524 1524 1524 1523 1523 1523 1523 1522 1522 1522 1522
1532 1532 1532 1532 1532 1532 1531 1531 1530 1530 1529 1529 1528 1527 1526 1525 1523 1522 1522 1523 1523 1524 1524 1524 1525 1525 1525 1525 1525 1525 1526 1526 1526 1525 1525 1524 1524 1524 1523 1523 1522 1522 1522
1533 1533 1533 1533 1533 1533 1533 1532 1532 1531 1531 1530 1530 1529 1528 1527 1526 1525 1525 1526 1526 1527 1527 1527 1527 1527 1527 1527 1527 1527 1527 1527 1527 1526 1526 1525 1525 1524 1524 1523 1522 1522 1522
1534 1534 1534 1534 1534 1534 1534 1534 1533 1533 1533 1532 1531 1531 1530 1529 1529 1528 1528 1529 1529 1529 1529 1529 1529 1530 1529 1529 1529 1529 1528 1528 1528 1527 1527 1526 1526 1525 1524 1524 1523 1522 1523
1534 1534 1534 1534 1535 1535 1535 1534 1535 1534 1534 1534 1533 1533 1532 1531 1531 1531 1531 1531 1531 1531 1531 1531 1531 1531 1531 1531 1531 1530 1530 1530 1529 1529 1528 1527 1527 1526 1525 1525 1524 1523 1524
1534 1535 1535 1535 1535 1535 1536 1536 1536 1536 1535 1535 1535 1534 1534 1533 1533 1533 1533 1533 1533 1533 1533 1533 1533 1533 1533 1532 1532 1532 1532 1531 1531 1530 1530 1529 1528 1527 1527 1526 1525 1525 1525
1534 1535 1535 1535 1535 1536 1536 1536 1537 1537 1537 1537 1536 1536 1536 1535 1535 1535 1535 1535 1535 1535 1535 1535 1535 1535 1534 1534 1534 1534 1533 1533 1532 1532 1531 1531 1530 1529 1528 1527 1527 1526 1526
1534 1534 1535 1535 1535 1536 1536 1537 1537 1538 1538 1538 1537 1537 1538 1537 1537 1537 1537 1537 1537 1537 1537 1536 1537 1536 1536 1536 1536 1536 1535 1534 1534 1533 1533 1532 1531 1530 1530 1529 1528 1528 1527
1534 1534 1534 1535 1535 1536 1536 1537 1538 1538 1538 1539 1539 1539 1539 1539 1539 1539 1538 1538 1538 1538 1538 1538 1538 1538 1538 1537 1537 1537 1537 1536 1535 1535 1534 1534 1532 1531 1531 1530 1529 1528 1528
1533 1534 1534 1534 1535 1536 1536 1537 1538 1539 1539 1539 1540 1540 1540 1540 1540 1540 1540 1540 1539 1540 1539 1539 1539 1539 1539 1539 1539 1538 1538 1537 1537 1536 1535 1535 1534 1533 1532 1531 1531 1530 1529
1532 1533 1533 1534 1534 1535 1536 1537 1538 1539 1540 1540 1540 1541 1541 1541 1541 1540 1540 1540 1540 1540 1540 1540 1540 1540 1540 1540 1540 1540 1539 1539 1538 1537 1536 1536 1535 1534 1533 1533 1532 1531 1531
1531 1532 1533 1533 1534 1535 1536 1537 1538 1539 1540 1540 1540 1541 1541 1541 1541 1541 1541 1541 1541 1541 1541 1541 1540 1541 1540 1540 1541 1541 1541 1541 1539 1539 1538 1537 1536 1535 1534 1534 1533 1532 1532
1530 1531 1532 1533 1534 1534 1535 1536 1538 1539 1539 1540 1540 1540 1541 1541 1542 1542 1542 1542 1541 1541 1541 1541 1541 1541 1541 1541 1541 1542 1541 1541 1541 1541 1539 1538 1537 1536 1535 1535 1534 1533 1533
1529 1530 1531 1532 1533 1534 1535 1535 1537 1538 1539 1540 1540 1540 1541 1541 1541 1541 1541 1541 1541 1542 1541 1541 1541 1541 1541 1541 1541 1540 1541 1541 1541 1541 1541 1540 1538 1537 1536 1535 1535 1534 1533
1527 1528 1529 1531 1532 1533 1534 1534 1536 1537 1538 1539 1539 1540 1541 1541 1541 1541 1541 1541 1541 1541 1541 1541 1541 1541 1541 1541 1541 1541 1540 1540 1541 1541 1541 1541 1540 1538 1537 1536 1535 1534 1534
1526 1526 1528 1529 1530 1531 1532 1533 1535 1536 1537 1538 1538 1539 1540 1540 1540 1540 1540 1541 1541 1541 1541 1541 1541 1541 1541 1541 1541 1541 1541 1541 1541 1541 1540 1540 1540 1539 1538 1536 1536 1535 1534